Find Starlink 5358

NORAD ID: 57143 Int'l Des: 2023-090 Owner: SPXS Country: US Constellation: starlink operational
LEOCIRCULAR

現在のビュー

3D地球を読み込み中...

Starlink 5358について

説明を読み込み中...

次回通過

Passes for default location (London). Set your location on the main map for personalized predictions.

高度履歴

Loading altitude history...

軌道要素

1 57143U 23090AU 26151.06362081 .00000044 00000-0 11131-4 0 9994
2 57143 43.0035 157.9461 0001214 283.0538 77.0178 15.27575050162957
Epoch: May 31, 2026 • Age: 19 hours

現在のステータス

高度 482.2 km
速度 7.63 km/s
衛星直下点 16.00°N, 24.98°W
打ち上げ日 Jun 23, 2023
運用期間 2.9 years
タイプ internet

技術仕様

分類 Payload
質量 305.00 kg
乾燥質量 290.00 kg
総質量 305.00 kg
長さ 0.20 m
直径 2.80 m
スパン 9.00 m
形状 Box + pan
製造者 SPXS
バスタイプ Starlink
フェーズステータス In Orbit
所有者/国 SPXS/US

Most Searched